Weather Roundup
Issued by NWS Springfield, MO

Home | Current Version | Previous Version | Text Only | Print | Product List | Glossary On
Versions: 1 2 3 4 5 6 7 8 9 10 11 12 13 14 15 16 17 18 19 20 21 22 23 24 25 26 27 28 29 30 31 32 33 34 35 36 37 38 39 40 41 42 43 44 45 46 47 48 49 50
000
NZUS99 KSGF 280757
HRRSGF

HOURLY WEATHER
NATIONAL WEATHER SERVICE SPRINGFIELD MO
300 AM CDT SAT MAY 28 2016

......SGF CWA......

CITY           SKY/WX    TMP DP  RH WIND       PRES   REMARKS
SPRINGFIELD    CLOUDY    66  61  84 SE9       29.82S
JOPLIN         CLOUDY    63  61  93 SE7       29.79F
WEST PLAINS    MOCLDY    67  63  87 S9        29.88R
ROLLA          CLOUDY    64  63  96 S7        29.83R

......SURROUNDING SGF CWA......

CITY           SKY/WX    TMP DP  RH WIND       PRES   REMARKS
CHANUTE        CLEAR     60  58  92 SE9       29.75S
PARSONS        CLEAR     62  60  93 SE7       29.77S
COFFEYVILLE    CLEAR     62  61  96 SE8       29.77R
EMPORIA        MOCLDY    60  57  89 CALM      29.73S
HARRISON AR    CLOUDY    63  60  90 SE9       29.85S

......KANSAS AND MISSOURI......

CITY           SKY/WX    TMP DP  RH WIND       PRES   REMARKS
KANSAS CTY INT PTCLDY    57  56  96 S5        29.75R
SEDALIA        CLOUDY    62  59  90 SE7       29.79F
ST JOSEPH      PTCLDY    59  57  93 S6        29.73F
ST LOUIS       PTCLDY    70  65  84 S8        29.85R
SPIRIT OF STL  PTCLDY    70  66  88 S6        29.83R
WICHITA        PTCLDY    62  57  83 SW12      29.70R
TOPEKA         MOCLDY    60  58  92 CALM      29.74S
OLATHE         PTCLDY    57  56  96 SE6       29.75F

......TENNESSEE......

CITY           SKY/WX    TMP DP  RH WIND       PRES   REMARKS
MEMPHIS        NOT AVBL
NASHVILLE      CLOUDY    73  64  73 S7        30.00S

......ARKANSAS.......

CITY           SKY/WX    TMP DP  RH WIND       PRES   REMARKS
FAYETTEVILLE   CLOUDY    63  61  93 CALM      29.83R
FT SMITH       PTCLDY    65  61  87 NE5       29.82R
LITTLE ROCK    CLOUDY    68  62  81 SE3       29.86F

......OKLAHOMA.......

CITY           SKY/WX    TMP DP  RH WIND       PRES   REMARKS
TULSA          CLEAR     67  62  84 S10       29.77R
PONCA CITY     CLEAR     65  60  84 SW13G22   29.74F
MCALESTER      CLOUDY    68  62  81 S10G16    29.82F
OKLAHOMA CITY  PTCLDY    62  61  96 SW5       29.81R

......IOWA............

CITY           SKY/WX    TMP DP  RH WIND       PRES   REMARKS
DES MOINES     NOT AVBL
QUAD CITIES    CLOUDY    71  65  81 S14G21    29.74S

......ILLINOIS........

CITY           SKY/WX    TMP DP  RH WIND       PRES   REMARKS
QUINCY         NOT AVBL
CHICAGO        CLOUDY    68  65  90 S8        29.85F



USA.gov is the U.S. government's official web portal to all federal, state and local government web resources and services.